Time,TemperatureF,DewpointF,PressureIn,WindDirection,WindDirectionDegrees,WindSpeedMPH,WindSpeedGustMPH,Humidity,HourlyPrecipIn,Conditions,Clouds,dailyrainin,SoftwareType,DateUTC
2013-02-15 00:00:00,23.2,15.9,29.92,ENE,70,1.0,2.0,73,0.00,,,0.00,LWC V2.10 B1813,2013-02-15 09:00:00,
2013-02-15 00:05:00,23.2,16.2,29.92,ENE,70,0.0,1.0,74,0.00,,,0.00,LWC V2.10 B1813,2013-02-15 09:05:00,
2013-02-15 00:10:00,23.1,16.7,29.92,ENE,69,0.0,1.0,76,0.00,,,0.00,LWC V2.10 B1813,2013-02-15 09:10:00,
2013-02-15 00:15:00,23.0,16.6,29.92,ENE,71,0.0,1.0,76,0.00,,,0.00,LWC V2.10 B1813,2013-02-15 09:15:00,
2013-02-15 00:20:00,22.9,16.5,29.93,ENE,70,0.0,1.0,76,0.00,,,0.00,LWC V2.10 B1813,2013-02-15 09:20:00,
2013-02-15 00:25:00,22.8,17.0,29.93,ENE,70,1.0,1.0,78,0.00,,,0.00,LWC V2.10 B1813,2013-02-15 09:25:00,
2013-02-15 00:30:00,22.7,16.9,29.93,ENE,69,1.0,2.0,78,0.00,,,0.00,LWC V2.10 B1813,2013-02-15 09:30:00,
2013-02-15 00:35:00,22.6,16.8,29.93,North,0,1.0,2.0,78,0.00,,,0.00,LWC V2.10 B1813,2013-02-15 09:35:00,
2013-02-15 00:40:00,22.5,17.0,29.93,North,0,0.0,2.0,79,0.00,,,0.00,LWC V2.10 B1813,2013-02-15 09:40:00,
2013-02-15 00:45:00,22.3,16.8,29.94,North,349,0.0,3.0,79,0.00,,,0.00,LWC V2.10 B1813,2013-02-15 09:45:00,
2013-02-15 00:50:00,22.2,17.3,29.94,NNW,341,1.0,3.0,81,0.00,,,0.00,LWC V2.10 B1813,2013-02-15 09:50:00,
2013-02-15 00:55:00,22.1,17.2,29.94,NNW,341,1.0,2.0,81,0.00,,,0.00,LWC V2.10 B1813,2013-02-15 09:55:00,
2013-02-15 01:00:00,22.1,17.5,29.95,NNW,341,0.0,2.0,82,0.00,,,0.00,LWC V2.10 B1813,2013-02-15 10:00:00,
2013-02-15 01:05:00,22.0,17.6,29.95,NNW,340,1.0,2.0,83,0.00,,,0.00,LWC V2.10 B1813,2013-02-15 10:05:00,
2013-02-15 01:10:00,22.0,17.6,29.95,NW,324,0.0,3.0,83,0.00,,,0.00,LWC V2.10 B1813,2013-02-15 10:10:00,
2013-02-15 01:15:00,21.9,17.3,29.95,WSW,254,2.0,5.0,82,0.00,,,0.00,LWC V2.10 B1813,2013-02-15 10:15:00,
2013-02-15 01:20:00,21.8,17.2,29.96,SW,234,3.0,3.0,82,0.00,,,0.00,LWC V2.10 B1813,2013-02-15 10:20:00,
2013-02-15 01:25:00,21.8,16.9,29.96,WSW,238,11.0,11.0,81,0.00,,,0.00,LWC V2.10 B1813,2013-02-15 10:25:00,
2013-02-15 01:30:00,21.7,16.8,29.97,West,265,3.0,8.0,81,0.00,,,0.00,LWC V2.10 B1813,2013-02-15 10:30:00,
2013-02-15 01:35:00,21.5,16.3,29.97,WSW,255,2.0,9.0,80,0.00,,,0.00,LWC V2.10 B1813,2013-02-15 10:35:00,
2013-02-15 01:40:00,21.4,16.2,29.97,WSW,249,0.0,10.0,80,0.00,,,0.00,LWC V2.10 B1813,2013-02-15 10:40:00,
2013-02-15 01:45:00,21.2,16.0,29.97,WSW,258,1.0,8.0,80,0.00,,,0.00,LWC V2.10 B1813,2013-02-15 10:45:00,
2013-02-15 01:50:00,21.1,15.9,29.97,West,269,7.0,9.0,80,0.00,,,0.00,LWC V2.10 B1813,2013-02-15 10:50:00,
2013-02-15 01:55:00,21.1,15.9,29.98,West,259,7.0,9.0,80,0.00,,,0.00,LWC V2.10 B1813,2013-02-15 10:55:00,
2013-02-15 02:00:00,21.0,15.2,29.98,WNW,283,5.0,10.0,78,0.00,,,0.00,LWC V2.10 B1813,2013-02-15 11:00:00,
2013-02-15 02:05:00,21.0,15.2,29.98,WSW,242,1.0,7.0,78,0.00,,,0.00,LWC V2.10 B1813,2013-02-15 11:05:00,
2013-02-15 02:10:00,20.9,15.1,29.99,WSW,242,0.0,6.0,78,0.00,,,0.00,LWC V2.10 B1813,2013-02-15 11:10:00,
2013-02-15 02:15:00,20.8,15.0,29.99,West,271,2.0,11.0,78,0.00,,,0.00,LWC V2.10 B1813,2013-02-15 11:15:00,
2013-02-15 02:20:00,20.7,14.9,30.00,West,270,2.0,7.0,78,0.00,,,0.00,LWC V2.10 B1813,2013-02-15 11:20:00,
2013-02-15 02:25:00,20.5,15.0,30.00,West,266,4.0,6.0,79,0.00,,,0.00,LWC V2.10 B1813,2013-02-15 11:25:00,
2013-02-15 02:30:00,20.3,15.1,30.00,West,259,2.0,6.0,80,0.00,,,0.00,LWC V2.10 B1813,2013-02-15 11:30:00,
2013-02-15 02:35:00,20.1,15.2,30.00,WSW,237,8.0,9.0,81,0.00,,,0.00,LWC V2.10 B1813,2013-02-15 11:35:00,
2013-02-15 02:40:00,19.9,15.6,30.00,WSW,257,5.0,7.0,83,0.00,,,0.00,LWC V2.10 B1813,2013-02-15 11:40:00,
2013-02-15 02:45:00,19.7,15.4,30.01,WSW,238,4.0,7.0,83,0.00,,,0.00,LWC V2.10 B1813,2013-02-15 11:45:00,
2013-02-15 02:50:00,19.7,15.4,30.01,WSW,242,4.0,5.0,83,0.00,,,0.00,LWC V2.10 B1813,2013-02-15 11:50:00,
2013-02-15 02:55:00,19.3,14.7,30.01,SW,223,4.0,8.0,82,0.00,,,0.00,LWC V2.10 B1813,2013-02-15 11:55:00,
2013-02-15 03:00:00,18.9,14.1,30.01,SW,228,5.0,6.0,81,0.00,,,0.00,LWC V2.10 B1813,2013-02-15 12:00:00,
2013-02-15 03:05:00,18.6,14.0,30.02,SW,217,3.0,3.0,82,0.00,,,0.00,LWC V2.10 B1813,2013-02-15 12:05:00,
2013-02-15 03:10:00,18.4,13.8,30.02,SW,232,3.0,6.0,82,0.00,,,0.00,LWC V2.10 B1813,2013-02-15 12:10:00,
2013-02-15 03:15:00,18.1,13.5,30.02,SW,229,4.0,9.0,82,0.00,,,0.00,LWC V2.10 B1813,2013-02-15 12:15:00,
2013-02-15 03:20:00,17.8,13.0,30.03,WSW,249,1.0,6.0,81,0.00,,,0.00,LWC V2.10 B1813,2013-02-15 12:20:00,
2013-02-15 03:25:00,17.5,12.7,30.03,WSW,257,2.0,4.0,81,0.00,,,0.00,LWC V2.10 B1813,2013-02-15 12:25:00,
2013-02-15 03:30:00,17.1,12.3,30.03,SW,236,4.0,4.0,81,0.00,,,0.00,LWC V2.10 B1813,2013-02-15 12:30:00,
2013-02-15 03:35:00,16.8,12.0,30.04,West,264,0.0,1.0,81,0.00,,,0.00,LWC V2.10 B1813,2013-02-15 12:35:00,
2013-02-15 03:40:00,16.6,11.8,30.04,SW,232,5.0,5.0,81,0.00,,,0.00,LWC V2.10 B1813,2013-02-15 12:40:00,
2013-02-15 03:45:00,16.2,10.9,30.04,SSW,209,1.0,8.0,79,0.00,,,0.00,LWC V2.10 B1813,2013-02-15 12:45:00,
2013-02-15 03:50:00,15.5,10.2,30.05,West,269,0.0,7.0,79,0.00,,,0.00,LWC V2.10 B1813,2013-02-15 12:50:00,
2013-02-15 03:55:00,14.6,9.0,30.05,WSW,252,6.0,11.0,78,0.00,,,0.00,LWC V2.10 B1813,2013-02-15 12:55:00,
2013-02-15 04:00:00,13.8,8.2,30.05,WSW,237,5.0,14.0,78,0.00,,,0.00,LWC V2.10 B1813,2013-02-15 13:00:00,
2013-02-15 04:05:00,13.0,7.7,30.06,SW,234,5.0,11.0,79,0.00,,,0.00,LWC V2.10 B1813,2013-02-15 13:05:00,
2013-02-15 04:10:00,12.4,7.4,30.06,SW,236,2.0,8.0,80,0.00,,,0.00,LWC V2.10 B1813,2013-02-15 13:10:00,
2013-02-15 04:15:00,12.0,7.3,30.06,West,263,3.0,11.0,81,0.00,,,0.00,LWC V2.10 B1813,2013-02-15 13:15:00,
2013-02-15 04:20:00,11.8,7.1,30.07,SW,233,7.0,8.0,81,0.00,,,0.00,LWC V2.10 B1813,2013-02-15 13:20:00,
2013-02-15 04:25:00,11.5,6.8,30.07,West,272,7.0,7.0,81,0.00,,,0.00,LWC V2.10 B1813,2013-02-15 13:25:00,
2013-02-15 04:30:00,11.3,6.9,30.08,WSW,244,7.0,11.0,82,0.00,,,0.00,LWC V2.10 B1813,2013-02-15 13:30:00,
2013-02-15 04:35:00,11.1,6.4,30.08,SSW,198,2.0,9.0,81,0.00,,,0.00,LWC V2.10 B1813,2013-02-15 13:35:00,
2013-02-15 04:40:00,10.8,6.1,30.08,SSW,211,4.0,6.0,81,0.00,,,0.00,LWC V2.10 B1813,2013-02-15 13:40:00,
2013-02-15 04:45:00,10.5,5.8,30.08,SW,229,10.0,10.0,81,0.00,,,0.00,LWC V2.10 B1813,2013-02-15 13:45:00,
2013-02-15 04:50:00,10.3,5.7,30.09,SSW,205,5.0,6.0,81,0.00,,,0.00,LWC V2.10 B1813,2013-02-15 13:50:00,
2013-02-15 04:55:00,10.1,6.0,30.09,WSW,237,1.0,9.0,83,0.00,,,0.00,LWC V2.10 B1813,2013-02-15 13:55:00,
2013-02-15 05:00:00,10.1,6.0,30.09,WSW,242,4.0,10.0,83,0.00,,,0.00,LWC V2.10 B1813,2013-02-15 14:00:00,
2013-02-15 05:05:00,10.1,6.0,30.09,WSW,245,2.0,6.0,83,0.00,,,0.00,LWC V2.10 B1813,2013-02-15 14:05:00,
2013-02-15 05:10:00,10.3,6.4,30.10,WSW,254,1.0,5.0,84,0.00,,,0.00,LWC V2.10 B1813,2013-02-15 14:10:00,
2013-02-15 05:15:00,10.5,6.6,30.10,WSW,252,10.0,11.0,84,0.00,,,0.00,LWC V2.10 B1813,2013-02-15 14:15:00,
2013-02-15 05:20:00,10.6,6.7,30.10,West,265,3.0,6.0,84,0.00,,,0.00,LWC V2.10 B1813,2013-02-15 14:20:00,
2013-02-15 05:25:00,10.7,6.6,30.11,SW,225,0.0,3.0,83,0.00,,,0.00,LWC V2.10 B1813,2013-02-15 14:25:00,
2013-02-15 05:30:00,10.7,6.6,30.11,West,274,0.0,3.0,83,0.00,,,0.00,LWC V2.10 B1813,2013-02-15 14:30:00,
2013-02-15 05:35:00,10.7,6.6,30.11,WSW,252,0.0,4.0,83,0.00,,,0.00,LWC V2.10 B1813,2013-02-15 14:35:00,
2013-02-15 05:40:00,10.7,6.6,30.12,WSW,241,0.0,2.0,83,0.00,,,0.00,LWC V2.10 B1813,2013-02-15 14:40:00,
2013-02-15 05:45:00,10.6,6.5,30.12,WSW,241,0.0,1.0,83,0.00,,,0.00,LWC V2.10 B1813,2013-02-15 14:45:00,
2013-02-15 05:50:00,10.4,6.0,30.13,WSW,241,2.0,2.0,82,0.00,,,0.00,LWC V2.10 B1813,2013-02-15 14:50:00,
2013-02-15 05:55:00,10.3,6.2,30.13,West,265,0.0,0.0,83,0.00,,,0.00,LWC V2.10 B1813,2013-02-15 14:55:00,
2013-02-15 06:00:00,10.0,5.6,30.13,South,188,0.0,1.0,82,0.00,,,0.00,LWC V2.10 B1813,2013-02-15 15:00:00,
2013-02-15 06:05:00,9.9,5.8,30.13,SSW,204,0.0,4.0,83,0.00,,,0.00,LWC V2.10 B1813,2013-02-15 15:05:00,
2013-02-15 06:10:00,9.9,5.8,30.14,WSW,248,0.0,3.0,83,0.00,,,0.00,LWC V2.10 B1813,2013-02-15 15:10:00,
2013-02-15 06:15:00,9.8,5.7,30.14,SW,229,0.0,3.0,83,0.00,,,0.00,LWC V2.10 B1813,2013-02-15 15:15:00,
2013-02-15 06:20:00,9.8,5.7,30.15,SW,214,1.0,3.0,83,0.00,,,0.00,LWC V2.10 B1813,2013-02-15 15:20:00,
2013-02-15 06:25:00,9.5,5.4,30.15,SSW,208,0.0,3.0,83,0.00,,,0.00,LWC V2.10 B1813,2013-02-15 15:25:00,
2013-02-15 06:30:00,9.3,5.2,30.16,SSW,198,1.0,3.0,83,0.00,,,0.00,LWC V2.10 B1813,2013-02-15 15:30:00,
2013-02-15 06:35:00,9.2,5.1,30.16,WSW,238,0.0,4.0,83,0.00,,,0.00,LWC V2.10 B1813,2013-02-15 15:35:00,
2013-02-15 06:40:00,9.1,5.0,30.16,SSW,197,0.0,3.0,83,0.00,,,0.00,LWC V2.10 B1813,2013-02-15 15:40:00,
2013-02-15 06:45:00,9.0,5.2,30.16,SSW,199,0.0,2.0,84,0.00,,,0.00,LWC V2.10 B1813,2013-02-15 15:45:00,
2013-02-15 06:50:00,8.9,5.1,30.16,SSW,200,1.0,2.0,84,0.00,,,0.00,LWC V2.10 B1813,2013-02-15 15:50:00,
2013-02-15 06:55:00,8.8,5.0,30.17,SSW,202,0.0,2.0,84,0.00,,,0.00,LWC V2.10 B1813,2013-02-15 15:55:00,
2013-02-15 07:00:00,8.7,4.9,30.17,SSW,213,0.0,1.0,84,0.00,,,0.00,LWC V2.10 B1813,2013-02-15 16:00:00,
2013-02-15 07:05:00,8.7,5.1,30.17,WSW,238,1.0,5.0,85,0.00,,,0.00,LWC V2.10 B1813,2013-02-15 16:05:00,
2013-02-15 07:10:00,8.8,5.2,30.18,WSW,240,0.0,4.0,85,0.00,,,0.00,LWC V2.10 B1813,2013-02-15 16:10:00,
2013-02-15 07:15:00,8.8,5.0,30.18,WSW,245,3.0,3.0,84,0.00,,,0.00,LWC V2.10 B1813,2013-02-15 16:15:00,
2013-02-15 07:20:00,8.7,4.9,30.18,WSW,245,1.0,2.0,84,0.00,,,0.00,LWC V2.10 B1813,2013-02-15 16:20:00,
2013-02-15 07:25:00,8.6,4.8,30.18,WSW,246,0.0,2.0,84,0.00,,,0.00,LWC V2.10 B1813,2013-02-15 16:25:00,
2013-02-15 07:30:00,8.5,4.7,30.19,WSW,246,0.0,0.0,84,0.00,,,0.00,LWC V2.10 B1813,2013-02-15 16:30:00,
2013-02-15 07:35:00,8.3,4.5,30.19,WSW,246,0.0,1.0,84,0.00,,,0.00,LWC V2.10 B1813,2013-02-15 16:35:00,
2013-02-15 07:40:00,8.1,4.0,30.19,WSW,245,0.0,1.0,83,0.00,,,0.00,LWC V2.10 B1813,2013-02-15 16:40:00,
2013-02-15 07:45:00,7.9,4.1,30.19,WSW,246,2.0,2.0,84,0.00,,,0.00,LWC V2.10 B1813,2013-02-15 16:45:00,
2013-02-15 07:50:00,7.7,3.9,30.20,SSW,202,1.0,3.0,84,0.00,,,0.00,LWC V2.10 B1813,2013-02-15 16:50:00,
2013-02-15 07:55:00,7.6,3.8,30.20,South,179,3.0,3.0,84,0.00,,,0.00,LWC V2.10 B1813,2013-02-15 16:55:00,
2013-02-15 08:00:00,7.4,3.6,30.21,South,180,1.0,1.0,84,0.00,,,0.00,LWC V2.10 B1813,2013-02-15 17:00:00,
2013-02-15 08:05:00,7.3,3.5,30.21,South,180,0.0,2.0,84,0.00,,,0.00,LWC V2.10 B1813,2013-02-15 17:05:00,
2013-02-15 08:10:00,7.2,3.7,30.21,South,180,0.0,1.0,85,0.00,,,0.00,LWC V2.10 B1813,2013-02-15 17:10:00,
2013-02-15 08:15:00,7.1,3.6,30.22,South,178,2.0,2.0,85,0.00,,,0.00,LWC V2.10 B1813,2013-02-15 17:15:00,
2013-02-15 08:20:00,7.0,3.5,30.22,South,177,0.0,2.0,85,0.00,,,0.00,LWC V2.10 B1813,2013-02-15 17:20:00,
2013-02-15 08:25:00,6.9,3.4,30.23,South,177,0.0,0.0,85,0.00,,,0.00,LWC V2.10 B1813,2013-02-15 17:25:00,
2013-02-15 08:30:00,6.9,3.4,30.23,South,176,0.0,1.0,85,0.00,,,0.00,LWC V2.10 B1813,2013-02-15 17:30:00,
2013-02-15 08:35:00,6.9,3.4,30.23,South,177,0.0,1.0,85,0.00,,,0.00,LWC V2.10 B1813,2013-02-15 17:35:00,
2013-02-15 08:40:00,6.8,3.3,30.23,South,178,1.0,2.0,85,0.00,,,0.00,LWC V2.10 B1813,2013-02-15 17:40:00,
2013-02-15 08:45:00,6.9,3.4,30.24,South,176,2.0,3.0,85,0.00,,,0.00,LWC V2.10 B1813,2013-02-15 17:45:00,
2013-02-15 08:50:00,6.9,3.4,30.24,South,176,0.0,2.0,85,0.00,,,0.00,LWC V2.10 B1813,2013-02-15 17:50:00,
2013-02-15 08:55:00,6.9,3.4,30.25,South,177,0.0,2.0,85,0.00,,,0.00,LWC V2.10 B1813,2013-02-15 17:55:00,
2013-02-15 09:00:00,6.9,3.4,30.25,South,177,0.0,0.0,85,0.00,,,0.00,LWC V2.10 B1813,2013-02-15 18:00:00,
2013-02-15 09:05:00,6.9,3.4,30.25,South,176,0.0,2.0,85,0.00,,,0.00,LWC V2.10 B1813,2013-02-15 18:05:00,
2013-02-15 09:10:00,6.9,3.4,30.26,SSE,153,0.0,4.0,85,0.00,,,0.00,LWC V2.10 B1813,2013-02-15 18:10:00,
2013-02-15 09:15:00,6.9,3.4,30.26,SSE,150,0.0,4.0,85,0.00,,,0.00,LWC V2.10 B1813,2013-02-15 18:15:00,
2013-02-15 09:20:00,7.0,3.5,30.27,SSE,155,3.0,3.0,85,0.00,,,0.00,LWC V2.10 B1813,2013-02-15 18:20:00,
2013-02-15 09:25:00,7.0,3.7,30.27,SSE,150,3.0,5.0,86,0.00,,,0.00,LWC V2.10 B1813,2013-02-15 18:25:00,
2013-02-15 09:30:00,7.1,3.8,30.27,SSE,151,0.0,2.0,86,0.00,,,0.00,LWC V2.10 B1813,2013-02-15 18:30:00,
2013-02-15 09:35:00,7.3,4.0,30.27,SE,141,1.0,3.0,86,0.00,,,0.00,LWC V2.10 B1813,2013-02-15 18:35:00,
2013-02-15 09:40:00,7.5,4.2,30.28,South,187,1.0,4.0,86,0.00,,,0.00,LWC V2.10 B1813,2013-02-15 18:40:00,
2013-02-15 09:45:00,7.7,4.4,30.28,West,261,1.0,6.0,86,0.00,,,0.00,LWC V2.10 B1813,2013-02-15 18:45:00,
2013-02-15 09:50:00,8.1,4.8,30.28,WSW,251,3.0,6.0,86,0.00,,,0.00,LWC V2.10 B1813,2013-02-15 18:50:00,
2013-02-15 09:55:00,8.5,5.2,30.28,West,266,0.0,1.0,86,0.00,,,0.00,LWC V2.10 B1813,2013-02-15 18:55:00,
2013-02-15 10:00:00,8.8,5.5,30.29,WSW,254,4.0,7.0,86,0.00,,,0.00,LWC V2.10 B1813,2013-02-15 19:00:00,
2013-02-15 10:05:00,9.0,5.4,30.29,WSW,245,2.0,2.0,85,0.00,,,0.00,LWC V2.10 B1813,2013-02-15 19:05:00,
2013-02-15 10:10:00,9.3,5.7,30.29,WSW,250,0.0,4.0,85,0.00,,,0.00,LWC V2.10 B1813,2013-02-15 19:10:00,
2013-02-15 10:15:00,9.5,5.7,30.30,SW,230,3.0,3.0,84,0.00,,,0.00,LWC V2.10 B1813,2013-02-15 19:15:00,
2013-02-15 10:20:00,9.8,6.2,30.30,West,261,3.0,9.0,85,0.00,,,0.00,LWC V2.10 B1813,2013-02-15 19:20:00,
2013-02-15 10:25:00,9.9,6.1,30.30,SW,223,5.0,10.0,84,0.00,,,0.00,LWC V2.10 B1813,2013-02-15 19:25:00,
2013-02-15 10:30:00,10.1,6.2,30.30,SW,215,0.0,7.0,84,0.00,,,0.00,LWC V2.10 B1813,2013-02-15 19:30:00,
2013-02-15 10:35:00,10.4,6.5,30.30,West,260,1.0,7.0,84,0.00,,,0.00,LWC V2.10 B1813,2013-02-15 19:35:00,
2013-02-15 10:40:00,10.7,6.8,30.31,West,266,1.0,4.0,84,0.00,,,0.00,LWC V2.10 B1813,2013-02-15 19:40:00,
2013-02-15 10:45:00,10.8,6.7,30.31,SW,226,2.0,4.0,83,0.00,,,0.00,LWC V2.10 B1813,2013-02-15 19:45:00,
2013-02-15 10:50:00,11.0,6.9,30.31,SW,215,0.0,6.0,83,0.00,,,0.00,LWC V2.10 B1813,2013-02-15 19:50:00,
2013-02-15 10:55:00,11.1,6.7,30.31,SSW,196,2.0,5.0,82,0.00,,,0.00,LWC V2.10 B1813,2013-02-15 19:55:00,
2013-02-15 11:00:00,11.2,6.8,30.32,SW,225,2.0,5.0,82,0.00,,,0.00,LWC V2.10 B1813,2013-02-15 20:00:00,
2013-02-15 11:05:00,11.2,6.8,30.32,SW,231,1.0,8.0,82,0.00,,,0.00,LWC V2.10 B1813,2013-02-15 20:05:00,
2013-02-15 11:10:00,11.2,6.8,30.32,NW,306,4.0,5.0,82,0.00,,,0.00,LWC V2.10 B1813,2013-02-15 20:10:00,
2013-02-15 11:15:00,11.1,6.7,30.33,WSW,248,5.0,12.0,82,0.00,,,0.00,LWC V2.10 B1813,2013-02-15 20:15:00,
2013-02-15 11:20:00,11.0,6.3,30.33,SW,226,1.0,13.0,81,0.00,,,0.00,LWC V2.10 B1813,2013-02-15 20:20:00,
2013-02-15 11:25:00,10.9,6.0,30.33,WSW,250,6.0,15.0,80,0.00,,,0.00,LWC V2.10 B1813,2013-02-15 20:25:00,
2013-02-15 11:30:00,10.5,5.3,30.33,SSW,202,5.0,13.0,79,0.00,,,0.00,LWC V2.10 B1813,2013-02-15 20:30:00,
2013-02-15 11:35:00,10.1,4.9,30.34,SW,233,8.0,15.0,79,0.00,,,0.00,LWC V2.10 B1813,2013-02-15 20:35:00,
2013-02-15 11:40:00,9.9,4.4,30.34,WSW,238,7.0,14.0,78,0.00,,,0.00,LWC V2.10 B1813,2013-02-15 20:40:00,
2013-02-15 11:45:00,9.7,4.5,30.34,WSW,250,5.0,14.0,79,0.00,,,0.00,LWC V2.10 B1813,2013-02-15 20:45:00,
2013-02-15 11:50:00,9.6,4.1,30.35,WSW,250,11.0,18.0,78,0.00,,,0.00,LWC V2.10 B1813,2013-02-15 20:50:00,
2013-02-15 11:55:00,9.8,4.3,30.35,West,275,6.0,17.0,78,0.00,,,0.00,LWC V2.10 B1813,2013-02-15 20:55:00,
2013-02-15 12:00:00,9.9,4.4,30.35,WSW,245,11.0,17.0,78,0.00,,,0.00,LWC V2.10 B1813,2013-02-15 21:00:00,
2013-02-15 12:05:00,9.9,4.4,30.35,WSW,249,4.0,16.0,78,0.00,,,0.00,LWC V2.10 B1813,2013-02-15 21:05:00,
2013-02-15 12:10:00,9.9,4.4,30.36,SW,236,12.0,12.0,78,0.00,,,0.00,LWC V2.10 B1813,2013-02-15 21:10:00,
2013-02-15 12:15:00,9.9,4.4,30.36,SW,233,8.0,15.0,78,0.00,,,0.00,LWC V2.10 B1813,2013-02-15 21:15:00,
2013-02-15 12:20:00,9.9,4.2,30.36,West,280,2.0,11.0,77,0.00,,,0.00,LWC V2.10 B1813,2013-02-15 21:20:00,
2013-02-15 12:25:00,9.9,4.2,30.36,West,270,16.0,16.0,77,0.00,,,0.00,LWC V2.10 B1813,2013-02-15 21:25:00,
2013-02-15 12:30:00,9.9,4.2,30.36,West,270,2.0,15.0,77,0.00,,,0.00,LWC V2.10 B1813,2013-02-15 21:30:00,
2013-02-15 12:35:00,9.8,3.8,30.37,West,261,6.0,13.0,76,0.00,,,0.00,LWC V2.10 B1813,2013-02-15 21:35:00,
2013-02-15 12:40:00,9.4,3.1,30.37,West,260,5.0,14.0,75,0.00,,,0.00,LWC V2.10 B1813,2013-02-15 21:40:00,
2013-02-15 12:45:00,9.1,3.1,30.38,WSW,249,4.0,9.0,76,0.00,,,0.00,LWC V2.10 B1813,2013-02-15 21:45:00,
2013-02-15 12:50:00,8.9,2.9,30.38,West,261,2.0,10.0,76,0.00,,,0.00,LWC V2.10 B1813,2013-02-15 21:50:00,
2013-02-15 12:55:00,8.8,3.1,30.38,WSW,246,2.0,13.0,77,0.00,,,0.00,LWC V2.10 B1813,2013-02-15 21:55:00,
2013-02-15 13:00:00,8.8,2.8,30.39,WSW,254,6.0,8.0,76,0.00,,,0.00,LWC V2.10 B1813,2013-02-15 22:00:00,
2013-02-15 13:05:00,8.8,3.1,30.39,SW,227,2.0,5.0,77,0.00,,,0.00,LWC V2.10 B1813,2013-02-15 22:05:00,
2013-02-15 13:10:00,8.8,3.1,30.39,WSW,242,2.0,7.0,77,0.00,,,0.00,LWC V2.10 B1813,2013-02-15 22:10:00,
2013-02-15 13:15:00,8.7,3.0,30.39,West,261,6.0,9.0,77,0.00,,,0.00,LWC V2.10 B1813,2013-02-15 22:15:00,
2013-02-15 13:20:00,8.6,2.6,30.40,SW,235,5.0,8.0,76,0.00,,,0.00,LWC V2.10 B1813,2013-02-15 22:20:00,
2013-02-15 13:25:00,8.5,2.8,30.40,WNW,288,3.0,5.0,77,0.00,,,0.00,LWC V2.10 B1813,2013-02-15 22:25:00,
2013-02-15 13:30:00,8.5,2.5,30.40,West,273,2.0,7.0,76,0.00,,,0.00,LWC V2.10 B1813,2013-02-15 22:30:00,
2013-02-15 13:35:00,8.5,2.8,30.40,West,269,3.0,10.0,77,0.00,,,0.00,LWC V2.10 B1813,2013-02-15 22:35:00,
2013-02-15 13:40:00,8.6,2.6,30.40,West,279,0.0,3.0,76,0.00,,,0.00,LWC V2.10 B1813,2013-02-15 22:40:00,
2013-02-15 13:45:00,8.5,2.8,30.40,WSW,252,6.0,6.0,77,0.00,,,0.00,LWC V2.10 B1813,2013-02-15 22:45:00,
2013-02-15 13:50:00,8.5,2.8,30.40,West,264,4.0,10.0,77,0.00,,,0.00,LWC V2.10 B1813,2013-02-15 22:50:00,
2013-02-15 13:55:00,8.3,2.6,30.40,West,265,9.0,9.0,77,0.00,,,0.00,LWC V2.10 B1813,2013-02-15 22:55:00,
2013-02-15 14:00:00,8.3,2.6,30.40,WSW,247,2.0,6.0,77,0.00,,,0.00,LWC V2.10 B1813,2013-02-15 23:00:00,
2013-02-15 14:05:00,8.1,2.4,30.40,WSW,245,6.0,6.0,77,0.00,,,0.00,LWC V2.10 B1813,2013-02-15 23:05:00,
2013-02-15 14:10:00,8.0,2.3,30.41,WSW,244,2.0,7.0,77,0.00,,,0.00,LWC V2.10 B1813,2013-02-15 23:10:00,
2013-02-15 14:15:00,7.9,2.5,30.40,WSW,257,2.0,7.0,78,0.00,,,0.00,LWC V2.10 B1813,2013-02-15 23:15:00,
2013-02-15 14:20:00,7.8,2.4,30.41,SW,226,7.0,9.0,78,0.00,,,0.00,LWC V2.10 B1813,2013-02-15 23:20:00,
2013-02-15 14:25:00,7.7,2.3,30.41,SW,227,1.0,5.0,78,0.00,,,0.00,LWC V2.10 B1813,2013-02-15 23:25:00,
2013-02-15 14:30:00,7.7,2.6,30.41,West,275,1.0,6.0,79,0.00,,,0.00,LWC V2.10 B1813,2013-02-15 23:30:00,
2013-02-15 14:35:00,7.7,2.6,30.42,SW,226,0.0,3.0,79,0.00,,,0.00,LWC V2.10 B1813,2013-02-15 23:35:00,
2013-02-15 14:40:00,7.7,2.6,30.42,WNW,284,4.0,5.0,79,0.00,,,0.00,LWC V2.10 B1813,2013-02-15 23:40:00,
2013-02-15 14:45:00,7.7,2.6,30.42,WSW,248,7.0,7.0,79,0.00,,,0.00,LWC V2.10 B1813,2013-02-15 23:45:00,
2013-02-15 14:50:00,7.8,2.4,30.42,WNW,289,1.0,8.0,78,0.00,,,0.00,LWC V2.10 B1813,2013-02-15 23:50:00,
2013-02-15 14:55:00,7.7,2.3,30.42,West,275,6.0,8.0,78,0.00,,,0.00,LWC V2.10 B1813,2013-02-15 23:55:00,
2013-02-15 15:00:00,7.7,2.3,30.42,West,269,6.0,8.0,78,0.00,,,0.00,LWC V2.10 B1813,2013-02-16 00:00:00,
2013-02-15 15:05:00,7.6,2.2,30.42,SW,232,0.0,4.0,78,0.00,,,0.00,LWC V2.10 B1813,2013-02-16 00:05:00,
2013-02-15 15:10:00,7.6,2.2,30.42,SW,232,1.0,6.0,78,0.00,,,0.00,LWC V2.10 B1813,2013-02-16 00:10:00,
2013-02-15 15:15:00,7.6,2.2,30.43,SW,232,5.0,8.0,78,0.00,,,0.00,LWC V2.10 B1813,2013-02-16 00:15:00,
2013-02-15 15:20:00,7.5,2.1,30.43,WSW,246,2.0,6.0,78,0.00,,,0.00,LWC V2.10 B1813,2013-02-16 00:20:00,
2013-02-15 15:25:00,7.4,2.0,30.43,West,259,2.0,6.0,78,0.00,,,0.00,LWC V2.10 B1813,2013-02-16 00:25:00,
2013-02-15 15:30:00,7.4,2.0,30.43,West,265,3.0,7.0,78,0.00,,,0.00,LWC V2.10 B1813,2013-02-16 00:30:00,
2013-02-15 15:35:00,7.3,1.9,30.43,WSW,240,7.0,7.0,78,0.00,,,0.00,LWC V2.10 B1813,2013-02-16 00:35:00,
2013-02-15 15:40:00,7.2,1.8,30.43,SW,225,3.0,8.0,78,0.00,,,0.00,LWC V2.10 B1813,2013-02-16 00:40:00,
2013-02-15 15:45:00,7.0,1.6,30.44,WSW,252,2.0,7.0,78,0.00,,,0.00,LWC V2.10 B1813,2013-02-16 00:45:00,
2013-02-15 15:50:00,6.7,1.0,30.44,WSW,248,3.0,9.0,77,0.00,,,0.00,LWC V2.10 B1813,2013-02-16 00:50:00,
2013-02-15 15:55:00,6.4,1.0,30.44,West,260,1.0,8.0,78,0.00,,,0.00,LWC V2.10 B1813,2013-02-16 00:55:00,
2013-02-15 16:00:00,6.2,0.8,30.44,WSW,245,3.0,7.0,78,0.00,,,0.00,LWC V2.10 B1813,2013-02-16 01:00:00,
2013-02-15 16:05:00,5.9,0.5,30.44,WSW,246,0.0,4.0,78,0.00,,,0.00,LWC V2.10 B1813,2013-02-16 01:05:00,
2013-02-15 16:10:00,5.6,0.5,30.44,West,269,0.0,3.0,79,0.00,,,0.00,LWC V2.10 B1813,2013-02-16 01:10:00,
2013-02-15 16:15:00,5.3,0.0,30.45,WNW,288,2.0,8.0,78,0.00,,,0.00,LWC V2.10 B1813,2013-02-16 01:15:00,
2013-02-15 16:20:00,5.0,2.5,30.45,WSW,245,4.0,5.0,89,0.00,,,0.00,LWC V2.10 B1813,2013-02-16 01:20:00,
2013-02-15 16:25:00,4.6,-0.4,30.45,West,265,3.0,7.0,79,0.00,,,0.00,LWC V2.10 B1813,2013-02-16 01:25:00,
2013-02-15 16:30:00,4.4,-0.4,30.45,WSW,258,6.0,6.0,80,0.00,,,0.00,LWC V2.10 B1813,2013-02-16 01:30:00,
2013-02-15 16:35:00,4.2,-0.6,30.45,WSW,240,7.0,9.0,80,0.00,,,0.00,LWC V2.10 B1813,2013-02-16 01:35:00,
2013-02-15 16:40:00,4.0,-0.8,30.45,West,269,8.0,8.0,80,0.00,,,0.00,LWC V2.10 B1813,2013-02-16 01:40:00,
2013-02-15 16:45:00,3.8,-1.0,30.46,WSW,253,4.0,6.0,80,0.00,,,0.00,LWC V2.10 B1813,2013-02-16 01:45:00,
2013-02-15 16:50:00,3.8,-0.7,30.46,WNW,284,5.0,7.0,81,0.00,,,0.00,LWC V2.10 B1813,2013-02-16 01:50:00,
2013-02-15 16:55:00,3.8,-0.7,30.46,WSW,251,2.0,5.0,81,0.00,,,0.00,LWC V2.10 B1813,2013-02-16 01:55:00,
2013-02-15 17:00:00,3.7,-0.5,30.47,SW,218,2.0,3.0,82,0.00,,,0.00,LWC V2.10 B1813,2013-02-16 02:00:00,
2013-02-15 17:05:00,3.8,-0.4,30.47,WNW,285,1.0,10.0,82,0.00,,,0.00,LWC V2.10 B1813,2013-02-16 02:05:00,
2013-02-15 17:10:00,3.9,-0.3,30.47,West,277,2.0,10.0,82,0.00,,,0.00,LWC V2.10 B1813,2013-02-16 02:10:00,
2013-02-15 17:15:00,3.9,-0.3,30.48,WSW,240,2.0,3.0,82,0.00,,,0.00,LWC V2.10 B1813,2013-02-16 02:15:00,
2013-02-15 17:20:00,3.9,-0.6,30.48,West,277,7.0,8.0,81,0.00,,,0.00,LWC V2.10 B1813,2013-02-16 02:20:00,
2013-02-15 17:25:00,3.8,-0.7,30.47,West,269,1.0,6.0,81,0.00,,,0.00,LWC V2.10 B1813,2013-02-16 02:25:00,
2013-02-15 17:30:00,3.7,-0.8,30.48,WSW,249,2.0,6.0,81,0.00,,,0.00,LWC V2.10 B1813,2013-02-16 02:30:00,
2013-02-15 17:35:00,3.6,-0.9,30.48,West,277,3.0,9.0,81,0.00,,,0.00,LWC V2.10 B1813,2013-02-16 02:35:00,
2013-02-15 17:40:00,3.5,-1.0,30.48,WSW,248,3.0,8.0,81,0.00,,,0.00,LWC V2.10 B1813,2013-02-16 02:40:00,
2013-02-15 17:45:00,3.3,-1.2,30.48,SW,230,2.0,7.0,81,0.00,,,0.00,LWC V2.10 B1813,2013-02-16 02:45:00,
2013-02-15 17:50:00,3.2,-1.3,30.48,West,261,2.0,6.0,81,0.00,,,0.00,LWC V2.10 B1813,2013-02-16 02:50:00,
2013-02-15 17:55:00,3.1,-1.4,30.48,SSW,205,2.0,6.0,81,0.00,,,0.00,LWC V2.10 B1813,2013-02-16 02:55:00,
2013-02-15 18:00:00,2.9,-1.6,30.48,SW,221,1.0,8.0,81,0.00,,,0.00,LWC V2.10 B1813,2013-02-16 03:00:00,
2013-02-15 18:05:00,2.8,-1.7,30.48,West,273,3.0,6.0,81,0.00,,,0.00,LWC V2.10 B1813,2013-02-16 03:05:00,
2013-02-15 18:10:00,2.6,-2.1,30.49,West,277,3.0,6.0,80,0.00,,,0.00,LWC V2.10 B1813,2013-02-16 03:10:00,
2013-02-15 18:15:00,2.3,-2.4,30.49,NW,304,1.0,7.0,80,0.00,,,0.00,LWC V2.10 B1813,2013-02-16 03:15:00,
2013-02-15 18:20:00,2.2,-2.3,30.49,West,274,2.0,6.0,81,0.00,,,0.00,LWC V2.10 B1813,2013-02-16 03:20:00,
2013-02-15 18:25:00,2.0,-2.5,30.49,West,263,2.0,4.0,81,0.00,,,0.00,LWC V2.10 B1813,2013-02-16 03:25:00,
2013-02-15 18:30:00,1.9,-2.6,30.49,WSW,257,4.0,6.0,81,0.00,,,0.00,LWC V2.10 B1813,2013-02-16 03:30:00,
2013-02-15 18:35:00,1.7,-2.8,30.49,West,261,4.0,4.0,81,0.00,,,0.00,LWC V2.10 B1813,2013-02-16 03:35:00,
2013-02-15 18:40:00,1.5,-3.0,30.49,West,280,3.0,5.0,81,0.00,,,0.00,LWC V2.10 B1813,2013-02-16 03:40:00,
2013-02-15 18:45:00,1.4,-3.0,30.50,West,269,2.0,4.0,81,0.00,,,0.00,LWC V2.10 B1813,2013-02-16 03:45:00,
2013-02-15 18:50:00,1.2,-3.2,30.50,West,275,5.0,7.0,81,0.00,,,0.00,LWC V2.10 B1813,2013-02-16 03:50:00,
2013-02-15 18:55:00,1.0,-3.4,30.50,West,273,3.0,4.0,81,0.00,,,0.00,LWC V2.10 B1813,2013-02-16 03:55:00,
2013-02-15 19:00:00,0.9,-3.5,30.50,West,264,3.0,6.0,81,0.00,,,0.00,LWC V2.10 B1813,2013-02-16 04:00:00,
2013-02-15 19:05:00,0.7,-3.7,30.50,West,263,2.0,7.0,81,0.00,,,0.00,LWC V2.10 B1813,2013-02-16 04:05:00,
2013-02-15 19:10:00,0.6,-3.8,30.50,West,269,4.0,9.0,81,0.00,,,0.00,LWC V2.10 B1813,2013-02-16 04:10:00,
2013-02-15 19:15:00,0.5,-3.9,30.50,WNW,288,6.0,6.0,81,0.00,,,0.00,LWC V2.10 B1813,2013-02-16 04:15:00,
2013-02-15 19:20:00,0.4,-4.0,30.50,West,277,3.0,8.0,81,0.00,,,0.00,LWC V2.10 B1813,2013-02-16 04:20:00,
2013-02-15 19:26:00,0.3,-4.1,30.50,WSW,244,2.0,6.0,81,0.00,,,0.00,LWC V2.10 B1813,2013-02-16 04:26:00,
2013-02-15 19:31:00,0.3,-4.4,30.51,West,269,5.0,6.0,80,0.00,,,0.00,LWC V2.10 B1813,2013-02-16 04:31:00,
2013-02-15 19:36:00,0.2,-4.5,30.51,West,281,4.0,8.0,80,0.00,,,0.00,LWC V2.10 B1813,2013-02-16 04:36:00,
2013-02-15 19:41:00,0.2,-4.5,30.51,West,271,2.0,5.0,80,0.00,,,0.00,LWC V2.10 B1813,2013-02-16 04:41:00,
2013-02-15 19:46:00,0.3,-4.1,30.52,WSW,257,3.0,5.0,81,0.00,,,0.00,LWC V2.10 B1813,2013-02-16 04:46:00,
2013-02-15 19:51:00,0.4,-4.0,30.52,WSW,254,5.0,5.0,81,0.00,,,0.00,LWC V2.10 B1813,2013-02-16 04:51:00,
2013-02-15 19:56:00,0.4,-4.0,30.52,WSW,248,3.0,6.0,81,0.00,,,0.00,LWC V2.10 B1813,2013-02-16 04:56:00,
2013-02-15 20:00:00,0.5,-3.9,30.52,West,272,2.0,7.0,81,0.00,,,0.00,LWC V2.10 B1813,2013-02-16 05:00:00,
2013-02-15 20:05:00,0.5,-3.9,30.52,West,267,1.0,5.0,81,0.00,,,0.00,LWC V2.10 B1813,2013-02-16 05:05:00,
2013-02-15 20:10:00,0.5,-4.2,30.52,WSW,242,1.0,7.0,80,0.00,,,0.00,LWC V2.10 B1813,2013-02-16 05:10:00,
2013-02-15 20:15:00,0.5,-4.2,30.52,West,259,4.0,5.0,80,0.00,,,0.00,LWC V2.10 B1813,2013-02-16 05:15:00,
2013-02-15 20:20:00,0.5,-4.2,30.53,WSW,244,8.0,8.0,80,0.00,,,0.00,LWC V2.10 B1813,2013-02-16 05:20:00,
2013-02-15 20:25:00,0.5,-4.2,30.53,WSW,251,3.0,6.0,80,0.00,,,0.00,LWC V2.10 B1813,2013-02-16 05:25:00,
2013-02-15 20:30:00,0.4,-4.5,30.53,West,275,2.0,7.0,79,0.00,,,0.00,LWC V2.10 B1813,2013-02-16 05:30:00,
2013-02-15 20:35:00,0.3,-4.6,30.53,West,275,6.0,8.0,79,0.00,,,0.00,LWC V2.10 B1813,2013-02-16 05:35:00,
2013-02-15 20:40:00,0.1,-4.8,30.53,SW,236,4.0,4.0,79,0.00,,,0.00,LWC V2.10 B1813,2013-02-16 05:40:00,
2013-02-15 20:45:00,0.0,-4.9,30.53,WSW,254,2.0,7.0,79,0.00,,,0.00,LWC V2.10 B1813,2013-02-16 05:45:00,
2013-02-15 20:50:00,-0.2,-5.1,30.53,West,273,6.0,8.0,79,0.00,,,0.00,LWC V2.10 B1813,2013-02-16 05:50:00,
2013-02-15 20:55:00,-0.3,-5.2,30.54,WNW,290,4.0,4.0,79,0.00,,,0.00,LWC V2.10 B1813,2013-02-16 05:55:00,
2013-02-15 21:00:00,-0.4,-5.3,30.54,West,270,0.0,3.0,79,0.00,,,0.00,LWC V2.10 B1813,2013-02-16 06:00:00,
2013-02-15 21:05:00,-0.5,-5.4,30.54,WSW,248,2.0,4.0,79,0.00,,,0.00,LWC V2.10 B1813,2013-02-16 06:05:00,
2013-02-15 21:10:00,-0.7,-5.6,30.54,WSW,253,3.0,6.0,79,0.00,,,0.00,LWC V2.10 B1813,2013-02-16 06:10:00,
2013-02-15 21:15:00,-0.8,-5.7,30.54,West,263,2.0,6.0,79,0.00,,,0.00,LWC V2.10 B1813,2013-02-16 06:15:00,
2013-02-15 21:20:00,-0.9,-5.8,30.54,West,261,0.0,4.0,79,0.00,,,0.00,LWC V2.10 B1813,2013-02-16 06:20:00,
2013-02-15 21:25:00,-1.0,-5.9,30.55,West,265,2.0,2.0,79,0.00,,,0.00,LWC V2.10 B1813,2013-02-16 06:25:00,
2013-02-15 21:30:00,-1.2,-6.1,30.55,West,259,0.0,3.0,79,0.00,,,0.00,LWC V2.10 B1813,2013-02-16 06:30:00,
2013-02-15 21:35:00,-1.3,-6.2,30.55,West,259,1.0,3.0,79,0.00,,,0.00,LWC V2.10 B1813,2013-02-16 06:35:00,
2013-02-15 21:40:00,-1.4,-6.0,30.55,West,259,1.0,3.0,80,0.00,,,0.00,LWC V2.10 B1813,2013-02-16 06:40:00,
2013-02-15 21:45:00,-1.4,-6.0,30.55,West,260,0.0,1.0,80,0.00,,,0.00,LWC V2.10 B1813,2013-02-16 06:45:00,
2013-02-15 21:50:00,-1.4,-6.0,30.55,West,259,0.0,0.0,80,0.00,,,0.00,LWC V2.10 B1813,2013-02-16 06:50:00,
2013-02-15 21:55:00,-1.5,-6.1,30.55,West,259,0.0,1.0,80,0.00,,,0.00,LWC V2.10 B1813,2013-02-16 06:55:00,
2013-02-15 22:00:00,-1.6,-6.5,30.56,West,260,0.0,0.0,79,0.00,,,0.00,LWC V2.10 B1813,2013-02-16 07:00:00,
2013-02-15 22:05:00,-1.7,-6.6,30.56,West,259,0.0,0.0,79,0.00,,,0.00,LWC V2.10 B1813,2013-02-16 07:05:00,
2013-02-15 22:10:00,-1.8,-6.7,30.56,West,259,0.0,0.0,79,0.00,,,0.00,LWC V2.10 B1813,2013-02-16 07:10:00,
2013-02-15 22:15:00,-1.9,-6.8,30.56,West,259,0.0,0.0,79,0.00,,,0.00,LWC V2.10 B1813,2013-02-16 07:15:00,
2013-02-15 22:20:00,-1.9,-6.8,30.57,West,260,0.0,0.0,79,0.00,,,0.00,LWC V2.10 B1813,2013-02-16 07:20:00,
2013-02-15 22:25:00,-2.0,-6.9,30.56,West,260,0.0,0.0,79,0.00,,,0.00,LWC V2.10 B1813,2013-02-16 07:25:00,
2013-02-15 22:30:00,-2.0,-6.9,30.56,West,260,0.0,0.0,79,0.00,,,0.00,LWC V2.10 B1813,2013-02-16 07:30:00,
2013-02-15 22:35:00,-2.1,-6.7,30.57,West,260,0.0,1.0,80,0.00,,,0.00,LWC V2.10 B1813,2013-02-16 07:35:00,
2013-02-15 22:40:00,-2.1,-7.0,30.57,West,260,1.0,1.0,79,0.00,,,0.00,LWC V2.10 B1813,2013-02-16 07:40:00,
2013-02-15 22:45:00,-2.3,-7.2,30.57,West,259,0.0,0.0,79,0.00,,,0.00,LWC V2.10 B1813,2013-02-16 07:45:00,
2013-02-15 22:50:00,-2.4,-7.3,30.57,West,260,0.0,0.0,79,0.00,,,0.00,LWC V2.10 B1813,2013-02-16 07:50:00,
2013-02-15 22:55:00,-2.5,-7.1,30.57,West,260,0.0,0.0,80,0.00,,,0.00,LWC V2.10 B1813,2013-02-16 07:55:00,
2013-02-15 23:00:00,-2.7,-7.3,30.57,West,259,1.0,2.0,80,0.00,,,0.00,LWC V2.10 B1813,2013-02-16 08:00:00,
2013-02-15 23:05:00,-2.9,-7.5,30.57,West,260,0.0,0.0,80,0.00,,,0.00,LWC V2.10 B1813,2013-02-16 08:05:00,
2013-02-15 23:10:00,-3.1,-7.7,30.57,West,261,0.0,0.0,80,0.00,,,0.00,LWC V2.10 B1813,2013-02-16 08:10:00,
2013-02-15 23:15:00,-3.3,-7.9,30.57,West,259,0.0,0.0,80,0.00,,,0.00,LWC V2.10 B1813,2013-02-16 08:15:00,
2013-02-15 23:20:00,-3.4,-8.0,30.57,West,259,0.0,0.0,80,0.00,,,0.00,LWC V2.10 B1813,2013-02-16 08:20:00,
2013-02-15 23:25:00,-3.5,-8.1,30.57,West,259,0.0,0.0,80,0.00,,,0.00,LWC V2.10 B1813,2013-02-16 08:25:00,
2013-02-15 23:30:00,-3.6,-7.9,30.57,West,259,0.0,0.0,81,0.00,,,0.00,LWC V2.10 B1813,2013-02-16 08:30:00,
2013-02-15 23:35:00,-3.6,-5.3,30.57,West,260,0.0,0.0,92,0.00,,,0.00,LWC V2.10 B1813,2013-02-16 08:35:00,
2013-02-15 23:40:00,-3.7,-8.0,30.57,West,260,0.0,0.0,81,0.00,,,0.00,LWC V2.10 B1813,2013-02-16 08:40:00,
2013-02-15 23:45:00,-3.8,-7.9,30.57,West,259,0.0,1.0,82,0.00,,,0.00,LWC V2.10 B1813,2013-02-16 08:45:00,
2013-02-15 23:50:00,-3.9,-8.0,30.57,West,259,1.0,2.0,82,0.00,,,0.00,LWC V2.10 B1813,2013-02-16 08:50:00,
2013-02-15 23:55:00,-4.0,-8.3,30.57,West,260,0.0,1.0,81,0.00,,,0.00,LWC V2.10 B1813,2013-02-16 08:55:00,